When you browse on this site, cookies collect data to enhance your experience and personalize the content and advertising you see.
Visit our Privacy Policy to learn more. By continuing to use the site, you agree to this use of cookies and data.
  • Em Portugal
  • Lista de países
  • Para 7 dias
  • Temperatura da água
  • Mapas de satélite
  • Mapa do tempo
  • Widgets de tempo
  • user-avatar
    Iniciar Sessão

    Previsão horária em Burhimahi

    Hoje, 24 Junho, Segunda-feira

    Tempo Temperatura Precipitação Vento Pressão Humidade
    00:00 +18°C° 0.1 mm 2 m/s 662 mmHg 69%
    01:00 +18°C° 0 mm 2 m/s 662 mmHg 67%
    02:00 +18°C° 0 mm 2 m/s 662 mmHg 65%
    03:00 +18°C° 0 mm 2 m/s 662 mmHg 62%
    04:00 +19°C° 0 mm 2 m/s 662 mmHg 61%
    05:00 +20°C° 0 mm 2 m/s 662 mmHg 61%
    06:00 +21°C° 0 mm 2 m/s 663 mmHg 60%
    07:00 +24°C° 0 mm 1 m/s 663 mmHg 56%
    08:00 +26°C° 0 mm 1 m/s 663 mmHg 51%
    09:00 +27°C° 0 mm 1 m/s 664 mmHg 47%
    10:00 +28°C° 0.1 mm 2 m/s 664 mmHg 48%
    11:00 +28°C° 0.1 mm 2 m/s 664 mmHg 48%
    12:00 +29°C° 0.1 mm 3 m/s 664 mmHg 48%
    13:00 +29°C° 0.2 mm 2 m/s 664 mmHg 50%
    14:00 +28°C° 0.2 mm 2 m/s 664 mmHg 51%
    15:00 +28°C° 0 mm 3 m/s 664 mmHg 54%
    16:00 +27°C° 0.7 mm 2 m/s 664 mmHg 59%
    17:00 +26°C° 0.7 mm 2 m/s 663 mmHg 64%
    18:00 +25°C° 0.7 mm 1 m/s 663 mmHg 69%
    19:00 +24°C° 0.1 mm 1 m/s 663 mmHg 69%
    20:00 +23°C° 0.1 mm 1 m/s 663 mmHg 69%
    21:00 +21°C° 0.1 mm 2 m/s 663 mmHg 69%
    22:00 +20°C° 0 mm 2 m/s 663 mmHg 69%
    23:00 +20°C° 0 mm 2 m/s 663 mmHg 68%

    Amanhã, 25 Junho, Terça-feira

    Tempo Temperatura Precipitação Vento Pressão Humidade
    00:00 +20°C° 0 mm 2 m/s 663 mmHg 67%
    01:00 +19°C° 0.1 mm 2 m/s 663 mmHg 67%
    02:00 +19°C° 0.1 mm 2 m/s 662 mmHg 67%
    03:00 +19°C° 0.1 mm 2 m/s 662 mmHg 67%
    04:00 +19°C° 0.1 mm 2 m/s 663 mmHg 67%
    05:00 +21°C° 0.1 mm 1 m/s 663 mmHg 67%
    06:00 +22°C° 0.1 mm 1 m/s 663 mmHg 67%
    07:00 +24°C° 0 mm 1 m/s 664 mmHg 62%
    08:00 +25°C° 0 mm 1 m/s 665 mmHg 58%
    09:00 +27°C° 0 mm 1 m/s 665 mmHg 53%
    10:00 +27°C° 0.6 mm 2 m/s 665 mmHg 54%
    11:00 +28°C° 0.6 mm 3 m/s 665 mmHg 55%
    12:00 +28°C° 0.6 mm 3 m/s 665 mmHg 57%
    13:00 +28°C° 0.7 mm 3 m/s 665 mmHg 58%
    14:00 +27°C° 0.7 mm 2 m/s 665 mmHg 60%
    15:00 +27°C° 0.7 mm 2 m/s 665 mmHg 62%
    16:00 +26°C° 0.3 mm 1 m/s 664 mmHg 64%
    17:00 +26°C° 0.3 mm 1 m/s 664 mmHg 67%
    18:00 +25°C° 0.3 mm 1 m/s 664 mmHg 69%
    19:00 +24°C° 0.4 mm 1 m/s 664 mmHg 71%
    20:00 +23°C° 0.4 mm 1 m/s 664 mmHg 72%
    21:00 +21°C° 0.4 mm 2 m/s 664 mmHg 74%
    22:00 +20°C° 0.1 mm 2 m/s 663 mmHg 73%
    23:00 +20°C° 0.1 mm 2 m/s 663 mmHg 73%

    Depois de amanhã, 26 Junho, Quarta-feira

    Tempo Temperatura Precipitação Vento Pressão Humidade
    00:00 +20°C° 0.1 mm 2 m/s 663 mmHg 72%
    01:00 +19°C° 0.2 mm 2 m/s 663 mmHg 73%
    02:00 +19°C° 0.2 mm 2 m/s 663 mmHg 73%
    03:00 +18°C° 0.2 mm 2 m/s 663 mmHg 74%
    04:00 +19°C° 0.5 mm 2 m/s 663 mmHg 73%
    05:00 +19°C° 0.5 mm 2 m/s 664 mmHg 73%
    06:00 +20°C° 0.5 mm 2 m/s 664 mmHg 73%
    07:00 +21°C° 0.4 mm 2 m/s 665 mmHg 68%
    08:00 +24°C° 0.4 mm 3 m/s 665 mmHg 63%
    09:00 +26°C° 0.4 mm 3 m/s 666 mmHg 58%
    10:00 +26°C° 0.8 mm 3 m/s 666 mmHg 59%
    11:00 +26°C° 0.8 mm 4 m/s 666 mmHg 60%
    12:00 +26°C° 0.8 mm 4 m/s 666 mmHg 62%
    13:00 +25°C° 1.2 mm 4 m/s 665 mmHg 64%
    14:00 +25°C° 1.2 mm 3 m/s 665 mmHg 66%
    15:00 +24°C° 1.2 mm 2 m/s 665 mmHg 68%
    16:00 +23°C° 0.4 mm 2 m/s 665 mmHg 70%
    17:00 +23°C° 0.4 mm 1 m/s 664 mmHg 73%
    18:00 +22°C° 0.4 mm 1 m/s 664 mmHg 75%
    19:00 +21°C° 0.4 mm 1 m/s 664 mmHg 78%
    20:00 +20°C° 0.4 mm 1 m/s 664 mmHg 81%
    21:00 +19°C° 0.4 mm 1 m/s 664 mmHg 83%
    22:00 +19°C° 0.2 mm 1 m/s 663 mmHg 82%
    23:00 +18°C° 0.2 mm 1 m/s 663 mmHg 82%

    27 Junho, Quinta-feira

    Tempo Temperatura Precipitação Vento Pressão Humidade
    00:00 +18°C° 0.2 mm 1 m/s 663 mmHg 81%
    01:00 +18°C° 0.4 mm 1 m/s 663 mmHg 81%
    02:00 +16°C° 0.4 mm 1 m/s 663 mmHg 81%
    03:00 +16°C° 0.4 mm 1 m/s 662 mmHg 81%
    04:00 +18°C° 0.3 mm 1 m/s 663 mmHg 79%
    05:00 +19°C° 0.3 mm 1 m/s 663 mmHg 77%
    06:00 +20°C° 0.3 mm 1 m/s 663 mmHg 75%
    07:00 +21°C° 0.2 mm 1 m/s 663 mmHg 71%
    08:00 +21°C° 0.2 mm 2 m/s 663 mmHg 67%
    09:00 +23°C° 0.2 mm 2 m/s 664 mmHg 63%
    10:00 +23°C° 0.6 mm 2 m/s 663 mmHg 63%
    11:00 +22°C° 0.6 mm 3 m/s 663 mmHg 63%
    12:00 +22°C° 0.6 mm 3 m/s 663 mmHg 63%
    13:00 +22°C° 0.2 mm 3 m/s 663 mmHg 63%
    14:00 +22°C° 0.2 mm 3 m/s 662 mmHg 63%
    15:00 +22°C° 0.2 mm 3 m/s 662 mmHg 63%
    16:00 +21°C° 0.2 mm 3 m/s 662 mmHg 65%
    17:00 +20°C° 0.2 mm 2 m/s 661 mmHg 68%
    18:00 +19°C° 0.2 mm 2 m/s 661 mmHg 70%
    19:00 +18°C° 0.2 mm 2 m/s 660 mmHg 73%
    20:00 +18°C° 0.2 mm 1 m/s 660 mmHg 77%
    21:00 +16°C° 0.2 mm 1 m/s 660 mmHg 80%
    22:00 +16°C° 0 mm 1 m/s 659 mmHg 80%
    23:00 +16°C° 0 mm 1 m/s 659 mmHg 80%

    28 Junho, Sexta-feira

    Tempo Temperatura Precipitação Vento Pressão Humidade
    00:00 +16°C° 0 mm 1 m/s 659 mmHg 80%
    01:00 +15°C° 0 mm 1 m/s 658 mmHg 80%
    02:00 +15°C° 0 mm 1 m/s 658 mmHg 79%
    03:00 +15°C° 0 mm 1 m/s 658 mmHg 79%
    04:00 +16°C° 0 mm 1 m/s 658 mmHg 77%
    05:00 +18°C° 0 mm 1 m/s 658 mmHg 74%
    06:00 +19°C° 0 mm 1 m/s 658 mmHg 71%
    07:00 +19°C° 0 mm 2 m/s 658 mmHg 67%
    08:00 +20°C° 0 mm 2 m/s 658 mmHg 64%
    09:00 +22°C° 0 mm 3 m/s 659 mmHg 60%
    10:00 +22°C° 0.1 mm 3 m/s 658 mmHg 59%
    11:00 +24°C° 0.1 mm 3 m/s 658 mmHg 58%
    12:00 +24°C° 0.1 mm 3 m/s 658 mmHg 56%
    13:00 +24°C° 0.2 mm 3 m/s 657 mmHg 58%
    14:00 +24°C° 0.2 mm 3 m/s 657 mmHg 59%
    15:00 +22°C° 0.2 mm 3 m/s 657 mmHg 60%
    16:00 +23°C° 0.3 mm 2 m/s 656 mmHg 65%
    17:00 +21°C° 0.3 mm 2 m/s 656 mmHg 69%
    18:00 +21°C° 0.3 mm 1 m/s 656 mmHg 74%
    19:00 +20°C° 0 mm 1 m/s 656 mmHg 75%
    20:00 +20°C° 0 mm 1 m/s 656 mmHg 76%
    21:00 +19°C° 0 mm 1 m/s 656 mmHg 77%
    22:00 +19°C° 0.1 mm 1 m/s 656 mmHg 76%
    23:00 +19°C° 0.1 mm 1 m/s 656 mmHg 74%

    29 Junho, Sábado

    Tempo Temperatura Precipitação Vento Pressão Humidade
    00:00 +19°C° 0.1 mm 1 m/s 656 mmHg 73%
    01:00 +19°C° 0.1 mm 1 m/s 656 mmHg 74%
    02:00 +18°C° 0.1 mm 1 m/s 656 mmHg 76%
    03:00 +18°C° 0.1 mm 1 m/s 655 mmHg 77%
    04:00 +18°C° 0 mm 1 m/s 656 mmHg 78%
    05:00 +19°C° 0 mm 1 m/s 656 mmHg 79%
    06:00 +19°C° 0 mm 1 m/s 656 mmHg 80%
    07:00 +20°C° 0.3 mm 1 m/s 656 mmHg 77%
    08:00 +20°C° 0.3 mm 1 m/s 656 mmHg 75%
    09:00 +20°C° 0.3 mm 2 m/s 656 mmHg 72%
    10:00 +21°C° 0.6 mm 2 m/s 656 mmHg 70%
    11:00 +22°C° 0.6 mm 3 m/s 656 mmHg 67%
    12:00 +22°C° 0.6 mm 3 m/s 657 mmHg 65%
    13:00 +22°C° 0.3 mm 3 m/s 656 mmHg 67%
    14:00 +21°C° 0.3 mm 2 m/s 656 mmHg 69%
    15:00 +21°C° 0.3 mm 2 m/s 656 mmHg 70%
    16:00 +21°C° 0.2 mm 2 m/s 656 mmHg 72%
    17:00 +20°C° 0.2 mm 2 m/s 656 mmHg 74%
    18:00 +21°C° 0.2 mm 1 m/s 656 mmHg 76%
    19:00 +20°C° 0 mm 1 m/s 656 mmHg 79%
    20:00 +19°C° 0 mm 1 m/s 656 mmHg 82%
    21:00 +18°C° 0 mm 1 m/s 656 mmHg 85%
    22:00 +18°C° 0.3 mm 1 m/s 656 mmHg 87%
    23:00 +18°C° 0.3 mm 1 m/s 656 mmHg 88%
    Mostrar mais